Regional Weather Roundup
Issued by NWS

Home | Current Version | Previous Version | Text Only | Print | Product List | Glossary Off
Versions: 1 2 3 4 5 6 7 8 9 10 11 12 13 14 15 16 17 18 19 20 21 22 23 24 25 26 27 28 29 30 31 32 33 34 35 36 37 38 39 40 41 42 43 44 45 46 47 48 49

000
ASUS45 KBOU 211207
RWRCO

WEATHER ROUNDUP FOR COLORADO
NATIONAL WEATHER SERVICE DENVER/BOULDER CO
600 AM MDT SUN SEP 21 2014

NOTE: "FAIR" INDICATES FEW OR NO CLOUDS BELOW 12000 FEET WITH NO
SIGNIFICANT WEATHER AND/OR OBSTRUCTIONS TO VISIBILITY.

COZ001>005-013-030-031-211300-
...NORTHWEST COLORADO...

CITY           SKY/WX    TMP DP  RH WIND       PRES   REMARKS
CRAIG          PTCLDY    38  33  82 SW3       30.29R
HAYDEN         CLEAR     52  37  58 SE9       30.29R
MEEKER         NOT AVBL
MOUNT WERNER   NOT AVBL
STEAMBOAT SPGS CLEAR     46  39  77 CALM      30.32R
WALDEN         CLEAR     34  32  93 SE5       30.43R WCI  30
$$

COZ006>008-011-211300-
...WEST CENTRAL VALLEYS...

CITY           SKY/WX    TMP DP  RH WIND       PRES   REMARKS
GRAND JUNCTION LGT RAIN  71  47  42 SE25G33   30.18R
MONTROSE       RAIN      60  55  83 E8        30.35R
EAGLE          PTCLDY    52  43  71 E5        30.35R
RIFLE          PTCLDY    57  43  59 CALM      30.24R
DELTA          RAIN      63  57  81 NE7       30.33R
NUCLA          CLOUDY    57  52  82 E13G18    30.32F
$$

COZ017>023-064>068-211300-
...SOUTHWEST COLORADO...

CITY           SKY/WX    TMP DP  RH WIND       PRES   REMARKS
DURANGO        TSTM      56  55  97 NE8       30.37S
CORTEZ         CLOUDY    60  56  86 NE8       30.28R
PAGOSA SPRINGS CLOUDY    57  50  78 CALM      30.42R
TELLURIDE      NOT AVBL
WOLF CREEK PAS CLOUDY    41  41 100 E5        30.68R
$$

COZ009-010-012-014-032>034-037-058>063-211300-
...CENTRAL COLORADO...

CITY           SKY/WX    TMP DP  RH WIND       PRES   REMARKS
ASPEN          MOCLDY    61  42  49 SE8       30.36S
BUENA VISTA    CLOUDY    53  51  91 CALM      30.48F
COPPER MTN     PTCLDY    46  37  71 S20G26    30.66S
BERTHOUD PASS  FAIR      37  36  93 S5        30.71S
COTTONWOOD PAS CLOUDY    50  46  87 CALM      30.58S
GUNNISON       CLOUDY    54  43  66 N7        30.46R
KREMMLING      CLEAR     43  36  75 CALM      30.39S
LEADVILLE      CLOUDY    44  41  89 E3        30.56S
MONARCH PASS   LGT RAIN  41  41 100 E6        30.79S VSB<1/4
SALIDA         CLOUDY    56  53  92 CALM      30.53S
SUNLIGHT       MOCLDY    50  41  71 CALM      30.59R
WILKERSON PASS NOT AVBL
$$

COZ069>075-211300-
...SAN LUIS VALLEY/SANGRE DE CRISTO MOUNTAINS...

CITY           SKY/WX    TMP DP  RH WIND       PRES   REMARKS
ALAMOSA        LGT RAIN  49  43  80 W5        30.42R
LA VETA PASS   LGT RAIN  45  45 100 NE14      30.59R VSB 1/4
SAGUACHE       NOT AVBL
$$

COZ035-036-038>040-211300-
...NORTHERN COLORADO FRONT RANGE...

CITY           SKY/WX    TMP DP  RH WIND       PRES   REMARKS
DENVER INTL AP CLOUDY    60  46  59 SE9       30.35R
DMNS CITY PARK   N/A     58  44  59 NW5G12    30.35S
AURORA         MOCLDY    59  50  72 SW9       30.37R
FRONT RANGE AP CLOUDY    61  46  59 SE13      30.36S
ERIE MUNI ARPT CLOUDY    59  44  58 N6        30.36S
BOULDER MUN AP CLOUDY    59  43  55 NW5       30.37S
CENTENNIAL     MOCLDY    56  47  71 W8        30.38R
BROOMFIELD     CLOUDY    57  43  58 N9        30.38R
FORT COLLINS   MOCLDY    61  41  48 NE6       30.38S
LONGMONT       CLOUDY    61  44  54 CALM      30.38S
$$

COZ041-046-047-076>085-087-088-211300-
...PIKES PEAK/PALMER DIVIDE AND SOUTHERN FOOTHILLS...

CITY           SKY/WX    TMP DP  RH WIND       PRES   REMARKS
COLO. SPRINGS  LGT RAIN  57  54  89 E7        30.40S
A. F. ACADEMY  CLOUDY    58  51  75 SE8       30.41R
ELLICOTT       NOT AVBL
FALCON         CLOUDY    55  52  89 S5        30.44S
FORT CARSON    CLOUDY    58  52  79 S9        30.37S
LIMON          CLOUDY    55  44  66 SE6       30.38S
MONUMENT HILL  MOCLDY    52  46  82 SW8       30.42R
TRINIDAD       CLOUDY    59  54  83 E3        30.39R
$$

COZ042>045-048>051-090-091-211300-
...NORTHEAST COLORADO...

CITY           SKY/WX    TMP DP  RH WIND       PRES   REMARKS
GREELEY ARPT   MOCLDY    59  39  47 NE5       30.38R
AKRON          CLOUDY    55  43  63 SE7       30.35R
BURLINGTON     MOCLDY    50  44  80 CALM      30.34R
WRAY           CLOUDY    49  46  89 W6        30.33R
STERLING       CLOUDY    52  46  82 CALM      30.34R
HOLYOKE        CLEAR     52  43  71 N6        30.32S
FORT MORGAN    CLOUDY    54  45  70 E6        30.37R
$$

COZ086-089-092>099-211300-
...SOUTHEAST COLORADO...

CITY           SKY/WX    TMP DP  RH WIND       PRES   REMARKS
PUEBLO         MOCLDY    60  58  92 W3        30.33R
LA JUNTA       CLOUDY    63  52  67 CALM      30.32R
LAMAR          MOCLDY    53  48  83 CALM      30.29R
SPRINGFIELD      N/A     57  53  86 N8        30.30R
$$



USA.gov is the U.S. government's official web portal to all federal, state and local government web resources and services.